Oakey, Australia

3:32 PM AEST on March 24, 2017 (GMT +1000)
Oakey (Military)

Weather History for YBOK - June, 2014

Change the Weather History Date:

Sunday, June 15, 2014

  Actual Average Record
Temperature  
Mean Temperature 48 °F -  
Max Temperature 55 °F - - ()
Min Temperature 40 °F - - ()
Degree Days  
Heating Degree Days 18    
Moisture  
Dew Point 44 °F    
Average Humidity 83    
Maximum Humidity 100    
Minimum Humidity 52    
Precipitation  
Precipitation 0.00 in - - ()
Sea Level Pressure  
Sea Level Pressure 30.04 in    
Wind  
Wind Speed 9 mph ()    
Max Wind Speed 20 mph    
Max Gust Speed -    
Visibility 4.6 miles    
Events      
T = Trace of Precipitation, MM = Missing Value Source: Averaged Metar Reports

Daily Weather History Graph

Daily Weather History Graph

Search for Another Location

Airport or City:

Trip Planner

Search our weather history database for the weather conditions in past years. The results will help you decide how hot, cold, wet, or windy it might be!

Date:

Astronomy

Jun. 15, 2014 Rise Set
Actual Time 6:40 AM AEST 5:06 PM AEST
Civil Twilight 6:15 AM AEST 5:31 PM AEST
Nautical Twilight 5:46 AM AEST 6:00 PM AEST
Astronomical Twilight 5:17 AM AEST 6:29 PM AEST
Moon 7:29 PM AEST (6/15) 8:12 AM AEST (6/15)
Length of Visible Light 11h 16m
Length of Day
10h 25m
Waning Gibbous, 95% of the Moon is Illuminated
Jun 15
Waning Gibbous
Jun 20
Last Quarter
Jun 27
New
Jul 5
First Quarter
Jul 12
Full

Hourly Weather History & Observations

Time (AEST) Temp. Windchill Dew Point Humidity Pressure Visibility Wind Dir Wind Speed Gust Speed Precip Events Conditions
12:00 AM 52 °F - 51 °F 93% 30.01 in - WSW 8.1 mph - -  
12:00 AM 51.8 °F - 50.0 °F 94% 30.01 in 6.2 mi WSW 8.1 mph - N/A   Unknown
1:00 AM 49 °F - 46 °F 87% 30.01 in - West 6.9 mph - -  
1:00 AM 50.0 °F - 46.4 °F 87% 30.01 in 6.2 mi West 6.9 mph - N/A   Unknown
2:03 AM 44.6 °F 39.7 °F 44.6 °F 100% 29.98 in 3.1 mi West 9.2 mph - N/A   Unknown
3:00 AM 44 °F - 44 °F 99% 30.00 in 0 mi West 8.1 mph - -  
3:00 AM 44.6 °F 40.2 °F 44.6 °F 100% 29.98 in 0.3 mi West 8.1 mph - N/A   Unknown
4:00 AM 44 °F - 44 °F 97% 29.99 in - WSW 8.1 mph - -  
4:00 AM 44.6 °F 40.2 °F 42.8 °F 93% 29.98 in 0.3 mi WSW 8.1 mph - N/A   Unknown
5:00 AM 42.8 °F 40.1 °F 42.8 °F 100% 29.98 in 0.2 mi West 4.6 mph - N/A   Overcast
6:00 AM 42 °F - 42 °F 100% 30.01 in 0 mi West 6.9 mph - -   Overcast
6:00 AM 42.8 °F 38.6 °F 42.8 °F 100% 30.01 in 0.1 mi West 6.9 mph - N/A   Overcast
7:00 AM 41 °F - 40 °F 97% 30.04 in - West 5.8 mph - -  
7:01 AM 41.0 °F 37.1 °F 41.0 °F 100% 30.04 in - West 5.8 mph - N/A   Mostly Cloudy
8:00 AM 44.6 °F 39.7 °F 44.6 °F 100% 30.04 in 6.2 mi West 9.2 mph - N/A   Scattered Clouds
9:00 AM 48 °F - 47 °F 94% 30.06 in - West 12.7 mph - -  
9:00 AM 48.2 °F - 46.4 °F 93% 30.06 in 6.2 mi WSW 12.7 mph - N/A   Unknown
10:00 AM 53 °F - 48 °F 77% 30.07 in - WSW 13.8 mph - -  
10:00 AM 53.6 °F - 48.2 °F 82% 30.06 in 6.2 mi WSW 13.8 mph - N/A   Unknown
11:00 AM 55.4 °F - 46.4 °F 72% 30.04 in 6.2 mi WSW 19.6 mph - N/A   Scattered Clouds
12:00 PM 55 °F - 45 °F 59% 30.05 in - WSW 19.6 mph - -   Overcast
12:00 PM 55.4 °F - 44.6 °F 67% 30.04 in 6.2 mi WSW 19.6 mph - N/A   Mostly Cloudy
1:00 PM 55 °F - 44 °F 58% 30.04 in - WSW 16.1 mph - -  
1:00 PM 55.4 °F - 44.6 °F 67% 30.04 in 6.2 mi WSW 16.1 mph - N/A   Mostly Cloudy
2:00 PM 55.4 °F - 44.6 °F 67% 30.01 in 6.2 mi WSW 18.4 mph - N/A   Mostly Cloudy
3:00 PM 55 °F - 42 °F 52% 30.03 in - WSW 16.1 mph - -  
3:00 PM 55.4 °F - 42.8 °F 63% 30.01 in 6.2 mi WSW 16.1 mph - N/A   Scattered Clouds
4:00 PM 55 °F - 42 °F 52% 30.04 in - WSW 17.3 mph - -  
4:00 PM 55.4 °F - 42.8 °F 63% 30.04 in 6.2 mi WSW 17.3 mph - N/A   Scattered Clouds
5:00 PM 51.8 °F - 42.8 °F 71% 30.04 in 6.2 mi WSW 13.8 mph - N/A   Unknown
6:00 PM 49 °F - 42 °F 70% 30.07 in - WSW 11.5 mph - -  
6:00 PM 50.0 °F - 42.8 °F 76% 30.06 in 6.2 mi WSW 11.5 mph - N/A   Scattered Clouds
7:00 PM 45 °F - 40 °F 78% 30.09 in - West 8.1 mph - -  
7:00 PM 44.6 °F 40.2 °F 41.0 °F 87% 30.06 in 6.2 mi West 8.1 mph - N/A   Unknown
8:00 PM 42.8 °F 39.3 °F 39.2 °F 87% 30.09 in 6.2 mi West 5.8 mph - N/A   Unknown
9:00 PM 43 °F - 40 °F 87% 30.13 in - NW 3.5 mph - -  
9:00 PM 42.8 °F 41.1 °F 41.0 °F 93% 30.12 in 6.2 mi NW 3.5 mph - N/A   Unknown
10:00 PM 42 °F - 40 °F 88% 30.14 in - WSW 8.1 mph - -  
10:00 PM 42.8 °F 38.0 °F 39.2 °F 87% 30.12 in 6.2 mi WSW 8.1 mph - N/A   Unknown
11:00 PM 41.0 °F 34.7 °F 39.2 °F 93% 30.12 in 6.2 mi WSW 10.4 mph - N/A   Unknown